DELTA 1 DEB, 7181

Orbit data source: Space-Track

DELTA 1 DEB, 7181 is space debris in SSO originally from a launch on Tue, 06 Nov 1973 UTC launched from the Air Force Western Test Range (AFWTR). Debris objects in space refer to the collection of defunct objects orbiting the Earth. Examples of debris include non-operational satellites, rocket bodies, and fragments generated from explosions, collisions, or faulty payload assembly.

Loading next visibility...
Identifier
7181, 1973-086ES
Orbit
SSO
Country
Flag of USUS
Related business
Manufacturer
Unknown
Mission
Spacecraft
Bus & Motor
Unknown
Mass
Unknown
Launch date (UTC)
1973-11-06 (53 years ago)
Launch vehicle
Unknown
Launch site
Air Force Western Test Range (AFWTR)
Object type
Payload
Rocket body
Debris
Shape & HBR
Unknown shape, 0.1 m
Radar Cross Section
Small (<0.1 m²)

Expand to show TLE details & history
Last TLE update: 13 hours ago

TLE from 13 hours ago
0 DELTA 1 DEB
1 07181U 73086ES  26133.17861314  .00000149  00000-0  11578-2 0  9995
2 07181 102.3854 270.2636 0104748 167.2847  12.9530 12.57212823406011
Epoch: 2026-05-13T04:17Z
TLE epoch observation values (Epoch: 2026-05-13T04:17:12.175Z)
Latitude
-0.60715°
Longitude
154.88784°
Altitude
1,357.386 km
Speed
7.216 km/s
True Right ascension
06h 00m 31s
True Declination
0° 36' 14"
Sunlit
Object was in daylight at epoch
Visualization orbit readout
Latitude
Unknown
Longitude
Unknown
Altitude
Unknown
Speed
Unknown
Apparent Right ascension
Unknown
Apparent Declination
Unknown
Sunlit
N/A
Visualization observer readout
Local Sidereal Time
01:47:20
Azimuth
Unknown
Elevation
Unknown
Doppler factor
Unknown
Orbital elements
Apogee altitude
1,513.855 km
Perigee altitude
1,350.235 km
Semi-major axis
7,810.182 km
Eccentricity
0.01047
Inclination
102.3854°
RAAN
270.2636°
Arg. of periapsis
167.2847°
True anomaly
13.22553°
Mean anomaly
12.953°
Eccentric anomaly
13.08891°
Mean motion
3.1445 °/min
Orbital period
114.49 mins
BSTAR
0.0011578
Loading maneuver chart data...
Computing Atmospheric mass density...
Loading historical data...
Loading historical data...
Loading historical data...
Loading historical data...
Loading historical data...
Loading historical data...
Loading historical data...

Documentation

Showing up to 5 results
|